Location: Poughquag
(41.6090°N, 73.6820°W)
Time: 10:20:35
(UTC-05:00)

SR - Pass Details

Date: 14 December 2023
Orbit: 574 x 868 km, 66.7° (Epoch: 25 February)

Event Time Altitude Azimuth Distance (km) Brightness Sun altitude
Rises 09:00:47 0° 210° (SSW) 3,260 ? 14.3°
Reaches altitude 10° 09:03:07 10° 211° (SSW) 2,374 ? 14.6°
Maximum altitude 09:08:39 85° 299° (WNW) 849 ? 15.3°
Drops below altitude 10° 09:14:31 10° 29° (NNE) 2,510 ? 15.9°
Sets 09:17:03 0° 30° (NNE) 3,460 ? 16.2°
